N0ZMJ-3 Weather Reports


Display with metric or nautical units.
time (UTC)temp
F
wind
direction
speed
MPH
gust
MPH
rain 1hr
in
rain 24hr
in
rain mn
in
humidity
%
barometer
mb
20260901000803 79 320 0.0 2.0 0.00 0.00 0.00 68 1011.9
20260901000428 79 320 0.0 2.0 0.00 0.00 0.00 67 1011.9
20260901000103 79 320 0.0 2.0 0.00 0.00 0.00 67 1011.9
20260831235428 79 319 0.0 2.0 0.00 0.00 0.00 66 1012.0
20260831235403 79 319 0.0 2.0 0.00 0.00 0.00 66 1012.0
20260831234659 79 320 0.0 1.0 0.00 0.00 0.00 64 1011.9
20260831234428 80 319 0.0 2.0 0.00 0.00 0.00 67 1012.1
20260831234003 80 319 0.0 2.0 0.00 0.00 0.00 66 1012.0
20260831233428 80 319 0.0 1.0 0.00 0.00 0.00 68 1012.1
20260831233259 80 319 0.0 1.0 0.00 0.00 0.00 68 1012.1
20260831232600 79 319 0.0 1.0 0.00 0.00 0.00 66 1012.1
20260831232428 80 319 0.0 1.0 0.00 0.00 0.00 66 1012.0
20260831231859 80 320 0.0 2.0 0.00 0.00 0.00 65 1012.0
20260831231428 80 319 0.0 3.0 0.00 0.00 0.00 65 1012.1
20260831231200 80 319 0.0 3.0 0.00 0.00 0.00 65 1012.1
20260831230501 80 323 0.0 3.0 0.00 0.00 0.00 63 1012.1
20260831230428 80 323 0.0 3.0 0.00 0.00 0.00 63 1012.1
20260831225810 80 323 0.0 3.0 0.00 0.00 0.00 63 1012.2
20260831225428 80 320 1.0 3.0 0.00 0.00 0.00 64 1012.3
20260831225101 80 320 1.0 3.0 0.00 0.00 0.00 64 1012.3
20260831224428 80 301 0.0 3.0 0.00 0.00 0.00 64 1012.1
20260831224401 80 301 0.0 3.0 0.00 0.00 0.00 64 1012.1
20260831223703 80 292 0.0 3.0 0.00 0.00 0.00 64 1012.2
20260831223428 80 276 1.0 2.0 0.00 0.00 0.00 66 1012.2
20260831223001 80 304 0.0 2.0 0.00 0.00 0.00 65 1012.2
20260831222428 80 304 0.0 2.0 0.00 0.00 0.00 65 1012.2
20260831222300 80 304 0.0 2.0 0.00 0.00 0.00 65 1012.2
20260831221603 80 292 0.0 2.0 0.00 0.00 0.00 66 1012.3
20260831221428 80 276 1.0 3.0 0.00 0.00 0.00 64 1012.1
20260831220900 81 193 2.0 3.0 0.00 0.00 0.00 66 1012.1
20260831220429 81 328 0.0 2.0 0.00 0.00 0.00 66 1012.2
20260831220203 81 328 0.0 2.0 0.00 0.00 0.00 66 1012.2
20260831215505 81 232 0.0 3.0 0.00 0.00 0.00 66 1012.2
20260831215429 81 232 0.0 3.0 0.00 0.00 0.00 66 1012.2
20260831214802 81 229 2.0 5.0 0.00 0.00 0.00 65 1012.1
20260831214428 81 229 1.0 5.0 0.00 0.00 0.00 65 1012.1
20260831214101 81 229 1.0 5.0 0.00 0.00 0.00 65 1012.1
20260831213428 81 246 1.0 4.0 0.00 0.00 0.00 65 1012.1
20260831213401 81 246 1.0 4.0 0.00 0.00 0.00 65 1012.1
20260831212700 82 247 0.0 4.0 0.00 0.00 0.00 64 1012.2
20260831212428 82 240 0.0 7.0 0.00 0.00 0.00 63 1012.3
20260831212001 81 227 2.0 7.0 0.00 0.00 0.00 63 1012.4
20260831211428 81 222 2.0 6.0 0.00 0.00 0.00 65 1012.4
20260831211303 81 222 2.0 6.0 0.00 0.00 0.00 65 1012.4
20260831210600 81 226 1.0 4.0 0.00 0.00 0.00 67 1012.4
20260831210428 81 219 2.0 6.0 0.00 0.00 0.00 66 1012.4
20260831205900 80 300 2.0 6.0 0.00 0.00 0.00 67 1012.5
20260831205429 80 1 0.0 3.0 0.00 0.00 0.00 67 1012.5
20260831205159 80 1 0.0 3.0 0.00 0.00 0.00 67 1012.5
20260831204500 80 221 0.0 3.0 0.00 0.00 0.00 66 1012.6
20260831204429 80 221 0.0 3.0 0.00 0.00 0.00 66 1012.6
20260831203801 80 190 0.0 3.0 0.00 0.00 0.00 64 1012.5
20260831203427 80 251 0.0 4.0 0.00 0.00 0.00 64 1012.6
20260831203059 80 251 0.0 4.0 0.00 0.00 0.00 64 1012.6
20260831202427 80 335 1.0 4.0 0.00 0.00 0.00 64 1012.5
20260831202359 80 335 1.0 4.0 0.00 0.00 0.00 64 1012.5
20260831201701 80 330 1.0 5.0 0.00 0.00 0.00 65 1012.4
20260831201427 80 334 0.0 5.0 0.00 0.00 0.00 65 1012.4
20260831200959 80 313 1.0 3.0 0.00 0.00 0.00 64 1012.5
20260831200427 80 5 1.0 3.0 0.00 0.00 0.00 63 1012.5
20260831200258 80 5 1.0 3.0 0.00 0.00 0.00 63 1012.5
20260831195559 80 315 1.0 3.0 0.00 0.00 0.00 65 1012.4
20260831195427 80 183 2.0 3.0 0.00 0.00 0.00 66 1012.3
20260831194906 80 221 1.0 3.0 0.00 0.00 0.00 65 1012.3
20260831194429 80 5 1.0 3.0 0.00 0.00 0.00 65 1012.3
20260831194200 80 5 1.0 3.0 0.00 0.00 0.00 65 1012.3
20260831193504 80 252 1.0 5.0 0.00 0.00 0.00 65 1012.5
20260831193428 80 252 1.0 5.0 0.00 0.00 0.00 65 1012.5
20260831192800 80 266 1.0 4.0 0.00 0.00 0.00 63 1012.5
20260831192428 80 237 2.0 4.0 0.00 0.00 0.00 63 1012.4
20260831192102 80 237 2.0 4.0 0.00 0.00 0.00 63 1012.4
20260831191428 80 304 1.0 5.0 0.00 0.00 0.00 62 1012.6
20260831191400 80 304 1.0 5.0 0.00 0.00 0.00 62 1012.6
20260831190703 80 223 2.0 5.0 0.00 0.00 0.00 60 1012.6
20260831190428 80 241 2.0 6.0 0.00 0.00 0.00 60 1012.5
20260831190001 80 273 1.0 6.0 0.00 0.00 0.00 66 1012.5
20260831185428 80 263 2.0 6.0 0.00 0.00 0.00 65 1012.4
20260831185259 80 263 2.0 6.0 0.00 0.00 0.00 65 1012.4
20260831184601 80 236 1.0 5.0 0.00 0.00 0.00 66 1012.5
20260831184428 80 342 1.0 5.0 0.00 0.00 0.00 63 1012.4
20260831183900 80 234 1.0 4.0 0.00 0.00 0.00 64 1012.5
20260831183429 80 10 2.0 4.0 0.00 0.00 0.00 64 1012.4
20260831183207 80 10 2.0 4.0 0.00 0.00 0.00 64 1012.4
20260831182501 80 279 1.0 3.0 0.00 0.00 0.00 67 1012.3
20260831182427 80 279 1.0 3.0 0.00 0.00 0.00 67 1012.3
20260831181800 79 299 1.0 3.0 0.00 0.00 0.00 64 1012.3
20260831181427 79 334 0.0 3.0 0.00 0.00 0.00 64 1012.4
20260831181100 79 334 0.0 3.0 0.00 0.00 0.00 64 1012.4
20260831180427 79 29 1.0 4.0 0.00 0.00 0.00 66 1012.3
20260831180400 79 29 1.0 4.0 0.00 0.00 0.00 66 1012.3
20260831175705 79 29 1.0 4.0 0.00 0.00 0.00 67 1012.2
20260831175429 78 35 1.0 4.0 0.00 0.00 0.00 70 1012.3
20260831175000 78 36 1.0 4.0 0.00 0.00 0.00 70 1012.3
20260831174429 78 33 1.0 3.0 0.00 0.00 0.00 73 1012.5
20260831174300 78 33 1.0 3.0 0.00 0.00 0.00 73 1012.5
20260831173603 77 3 0.0 2.0 0.00 0.00 0.00 73 1012.5
20260831173428 77 3 1.0 4.0 0.00 0.00 0.00 74 1012.5
20260831172902 77 343 2.0 4.0 0.00 0.00 0.00 75 1012.5
20260831172428 77 250 1.0 4.0 0.00 0.00 0.00 78 1012.6
20260831172203 77 250 1.0 4.0 0.00 0.00 0.00 78 1012.6
20260831171500 76 14 1.0 4.0 0.00 0.00 0.00 78 1012.6
20260831171428 76 14 1.0 4.0 0.00 0.00 0.00 78 1012.6
20260831170800 76 360 1.0 4.0 0.00 0.00 0.00 79 1012.6
20260831170428 76 360 1.0 4.0 0.00 0.00 0.00 79 1012.6
20260831170100 76 360 1.0 4.0 0.00 0.00 0.00 79 1012.6
20260831165428 75 347 1.0 5.0 0.00 0.00 0.00 82 1012.7
20260831165400 75 347 1.0 5.0 0.00 0.00 0.00 82 1012.7
20260831164701 75 223 0.0 5.0 0.00 0.00 0.00 83 1012.7
20260831164427 75 360 1.0 3.0 0.00 0.00 0.00 82 1012.5
20260831164002 75 21 0.0 3.0 0.00 0.00 0.00 84 1012.6
20260831163428 75 21 1.0 3.0 0.00 0.00 0.00 84 1012.6
20260831162603 74 15 1.0 4.0 0.00 0.00 0.00 84 1012.7
20260831162428 74 333 1.0 4.0 0.00 0.00 0.00 85 1012.7
20260831161859 74 0 1.0 3.0 0.00 0.00 0.00 87 1012.6
20260831161428 73 360 1.0 3.0 0.00 0.00 0.00 87 1012.6
20260831161200 73 360 1.0 3.0 0.00 0.00 0.00 87 1012.6
20260831160502 73 360 0.0 4.0 0.00 0.00 0.00 88 1012.7
20260831160428 73 360 0.0 4.0 0.00 0.00 0.00 88 1012.7
20260831155759 73 9 1.0 5.0 0.00 0.00 0.00 88 1012.6
20260831155427 72 358 2.0 5.0 0.00 0.00 0.00 88 1012.5
20260831155103 72 358 2.0 5.0 0.00 0.00 0.00 88 1012.5
20260831154427 72 58 1.0 5.0 0.00 0.00 0.00 89 1012.4
20260831154400 72 58 1.0 5.0 0.00 0.00 0.00 89 1012.4
20260831153659 72 17 2.0 5.0 0.00 0.00 0.00 90 1012.4
20260831153427 72 357 2.0 5.0 0.00 0.00 0.00 90 1012.4
20260831153000 71 333 1.0 4.0 0.00 0.00 0.00 92 1012.4
20260831152428 71 343 1.0 4.0 0.00 0.00 0.00 93 1012.3
20260831152306 71 343 1.0 4.0 0.00 0.00 0.00 93 1012.3
20260831151605 70 340 2.0 4.0 0.00 0.00 0.00 94 1012.3
20260831151428 70 353 2.0 5.0 0.00 0.00 0.00 93 1012.2
20260831150907 70 328 2.0 5.0 0.00 0.00 0.00 94 1012.2
20260831150428 70 323 1.0 4.0 0.00 0.00 0.00 94 1012.2
20260831150200 70 323 1.0 4.0 0.00 0.00 0.00 94 1012.2
20260831145500 70 340 2.0 4.0 0.00 0.00 0.00 96 1012.2
20260831145428 70 340 2.0 4.0 0.00 0.00 0.00 96 1012.2
20260831144802 70 258 2.0 5.0 0.00 0.00 0.00 96 1012.3
20260831144427 70 284 1.0 5.0 0.00 0.00 0.00 96 1012.3
20260831144104 70 284 1.0 5.0 0.00 0.00 0.00 96 1012.3
20260831143427 70 275 1.0 6.0 0.00 0.00 0.00 98 1012.1
20260831143358 70 275 1.0 6.0 0.00 0.00 0.00 98 1012.1
20260831142659 70 254 1.0 5.0 0.00 0.00 0.00 98 1012.1
20260831142427 69 318 1.0 5.0 0.00 0.00 0.00 99 1012.3
20260831142001 69 305 1.0 4.0 0.00 0.00 0.00 99 1012.1
20260831141429 69 259 1.0 4.0 0.00 0.00 0.00 100 1011.8
20260831141301 69 259 1.0 4.0 0.00 0.00 0.00 100 1011.8
20260831140600 69 258 1.0 4.0 0.00 0.00 0.00 100 1011.9
20260831140429 69 346 1.0 4.0 0.00 0.00 0.00 100 1011.8
20260831135902 69 360 0.0 3.0 0.00 0.00 0.00 100 1011.7
20260831135428 68 1 1.0 3.0 0.00 0.00 0.00 100 1011.8
20260831135200 68 1 1.0 3.0 0.00 0.00 0.00 100 1011.8
20260831134501 68 291 0.0 5.0 0.00 0.00 0.00 100 1011.6
20260831134428 68 291 0.0 5.0 0.00 0.00 0.00 100 1011.6
20260831133802 68 210 1.0 4.0 0.00 0.00 0.00 100 1011.5
20260831133428 68 266 0.0 5.0 0.00 0.00 0.00 100 1011.3
20260831133101 68 266 0.0 5.0 0.00 0.00 0.00 100 1011.3
20260831132428 67 285 1.0 5.0 0.00 0.00 0.00 100 1011.1
20260831132400 67 285 1.0 5.0 0.00 0.00 0.00 100 1011.1
20260831131659 67 278 0.0 4.0 0.00 0.00 0.00 100 1011.1
20260831131428 67 310 1.0 6.0 0.00 0.00 0.00 100 1010.9
20260831131000 66 310 1.0 6.0 0.00 0.00 0.00 100 1010.9
20260831130427 66 302 0.0 7.0 0.00 0.00 0.00 100 1011.0
20260831130300 66 302 0.0 7.0 0.00 0.00 0.00 100 1011.0
20260831125559 66 218 0.0 7.0 0.00 0.00 0.00 100 1011.0
20260831125427 66 205 1.0 4.0 0.00 0.00 0.00 100 1010.9
20260831124900 66 267 1.0 4.0 0.00 0.00 0.00 100 1010.8
20260831124427 66 250 1.0 4.0 0.00 0.00 0.00 100 1010.5
20260831124158 66 250 1.0 4.0 0.00 0.00 0.00 100 1010.5
20260831123459 65 170 0.0 0.0 0.00 0.00 0.00 100 1010.5
20260831123427 65 170 0.0 0.0 0.00 0.00 0.00 100 1010.5
20260831122759 65 170 0.0 0.0 0.00 0.00 0.00 100 1010.1
20260831122427 66 170 0.0 0.0 0.00 0.00 0.00 100 1010.1
20260831122100 66 170 0.0 0.0 0.00 0.00 0.00 100 1010.1
20260831121429 66 170 0.0 1.0 0.00 0.00 0.00 100 1010.0
20260831121400 66 170 0.0 1.0 0.00 0.00 0.00 100 1010.0
20260831120708 66 170 0.0 1.0 0.00 0.00 0.00 100 1009.9
20260831120428 66 170 0.0 0.0 0.00 0.00 0.00 100 1009.8
20260831120001 66 170 0.0 0.0 0.00 0.00 0.00 100 1010.0
20260831115428 66 170 0.0 0.0 0.00 0.00 0.00 100 1009.9
20260831115306 66 170 0.0 0.0 0.00 0.00 0.00 100 1009.9
20260831114559 67 170 0.0 0.0 0.00 0.00 0.00 100 1009.8
20260831114428 67 170 0.0 0.0 0.00 0.00 0.00 100 1009.8
20260831113901 67 170 0.0 0.0 0.00 0.00 0.00 100 1009.8
20260831113428 67 170 0.0 1.0 0.00 0.00 0.00 100 1009.7
20260831113200 67 170 0.0 1.0 0.00 0.00 0.00 100 1009.7
20260831112427 67 170 0.0 0.0 0.00 0.00 0.00 100 1009.5
20260831111759 68 170 0.0 1.0 0.00 0.00 0.00 100 1009.7
20260831111427 68 170 0.0 1.0 0.00 0.00 0.00 100 1009.4
20260831111100 68 170 0.0 1.0 0.00 0.00 0.00 100 1009.4
20260831110427 68 170 0.0 0.0 0.00 0.00 0.00 100 1009.2
20260831110402 68 170 0.0 0.0 0.00 0.00 0.00 100 1009.2
20260831105703 68 170 0.0 1.0 0.00 0.00 0.00 100 1009.1
20260831105427 68 170 0.0 1.0 0.00 0.00 0.00 100 1008.9
20260831105002 68 170 0.0 1.0 0.00 0.00 0.00 100 1008.8
20260831104429 69 170 0.0 0.0 0.00 0.00 0.00 100 1008.8
20260831104306 69 170 0.0 0.0 0.00 0.00 0.00 100 1008.8
20260831103601 69 170 0.0 0.0 0.00 0.00 0.00 100 1008.6
20260831103428 69 170 0.0 0.0 0.00 0.00 0.00 100 1008.6
20260831102427 69 170 0.0 0.0 0.00 0.00 0.00 100 1008.3
20260831102159 69 170 0.0 0.0 0.00 0.00 0.00 100 1008.3
20260831101501 69 170 0.0 0.0 0.00 0.00 0.00 100 1008.4
20260831101427 69 170 0.0 0.0 0.00 0.00 0.00 100 1008.4
20260831100802 70 170 0.0 1.0 0.00 0.00 0.00 100 1008.3
20260831100427 70 170 0.0 1.0 0.00 0.00 0.00 100 1008.3
20260831095427 70 170 0.0 2.0 0.00 0.00 0.00 100 1008.3
20260831095404 70 170 0.0 2.0 0.00 0.00 0.00 100 1008.3
20260831094700 70 170 0.0 2.0 0.00 0.00 0.00 100 1008.3
20260831094429 70 170 0.0 2.0 0.00 0.00 0.00 100 1008.3
20260831094001 70 170 0.0 3.0 0.00 0.00 0.00 100 1008.3
20260831093429 70 170 0.0 3.0 0.00 0.00 0.00 100 1008.3
20260831093300 70 170 0.0 3.0 0.00 0.00 0.00 100 1008.3
20260831092605 70 330 0.0 1.0 0.00 0.00 0.00 100 1008.3
20260831092429 70 329 0.0 1.0 0.00 0.00 0.00 100 1008.2
20260831091900 70 329 0.0 1.0 0.00 0.00 0.00 100 1007.9
20260831091428 70 329 0.0 1.0 0.00 0.00 0.00 100 1007.9
20260831091200 70 329 0.0 1.0 0.00 0.00 0.00 100 1007.9
20260831090508 70 330 0.0 0.0 0.00 0.00 0.00 100 1007.9
20260831090428 70 330 0.0 0.0 0.00 0.00 0.00 100 1007.9
20260831085759 70 330 0.0 1.0 0.00 0.00 0.00 100 1007.7
20260831085428 70 330 0.0 3.0 0.00 0.00 0.00 100 1007.6
20260831085101 70 330 0.0 3.0 0.00 0.00 0.00 100 1007.6
20260831084428 70 331 0.0 3.0 0.00 0.00 0.00 100 1007.6
20260831084401 70 331 0.0 3.0 0.00 0.00 0.00 100 1007.6
20260831083705 69 338 1.0 4.0 0.00 0.00 0.00 100 1007.5
20260831083428 69 360 1.0 4.0 0.00 0.00 0.00 100 1007.3
20260831083000 69 327 0.0 2.0 0.00 0.00 0.00 100 1007.5
20260831082428 68 319 0.0 2.0 0.00 0.00 0.00 98 1007.3
20260831082307 68 319 0.0 2.0 0.00 0.00 0.00 98 1007.3
20260831081603 68 241 0.0 1.0 0.00 0.00 0.00 99 1007.1
20260831081428 68 242 0.0 1.0 0.00 0.00 0.00 98 1007.0
20260831080901 68 242 0.0 2.0 0.00 0.00 0.00 98 1007.1
20260831080428 68 241 0.0 2.0 0.00 0.00 0.00 98 1007.0
20260831080200 68 241 0.0 2.0 0.00 0.00 0.00 98 1007.0
20260831075459 68 242 0.0 0.0 0.00 0.00 0.00 97 1007.0
20260831075428 68 242 0.0 0.0 0.00 0.00 0.00 97 1007.0
20260831074803 69 242 0.0 0.0 0.00 0.00 0.00 97 1006.9
20260831074428 69 242 0.0 0.0 0.00 0.00 0.00 97 1006.9
20260831074101 69 242 0.0 0.0 0.00 0.00 0.00 97 1006.9
20260831073428 69 242 0.0 2.0 0.00 0.00 0.00 96 1006.9
20260831073359 69 242 0.0 2.0 0.00 0.00 0.00 96 1006.9
20260831072700 69 241 0.0 2.0 0.00 0.00 0.00 96 1006.7
20260831072428 69 242 0.0 0.0 0.00 0.00 0.00 96 1006.7
20260831072002 69 242 0.0 0.0 0.00 0.00 0.00 96 1006.8
20260831071427 69 242 0.0 2.0 0.00 0.00 0.00 96 1006.7
20260831071300 69 242 0.0 2.0 0.00 0.00 0.00 96 1006.7
20260831070603 70 241 0.0 2.0 0.00 0.00 0.00 96 1006.7
20260831070427 70 241 1.0 2.0 0.00 0.00 0.00 95 1006.7
20260831065904 70 241 0.0 2.0 0.00 0.00 0.00 95 1006.9
20260831065428 70 241 0.0 1.0 0.00 0.00 0.00 95 1006.5
20260831065200 70 241 0.0 1.0 0.00 0.00 0.00 95 1006.5
20260831064428 70 242 0.0 2.0 0.00 0.00 0.00 95 1006.6
20260831063804 70 242 0.0 2.0 0.00 0.00 0.00 95 1006.5
20260831063428 70 242 0.0 0.0 0.00 0.00 0.00 94 1006.7
20260831063101 70 242 0.0 0.0 0.00 0.00 0.00 94 1006.7
20260831062429 70 242 0.0 0.0 0.00 0.00 0.00 94 1006.6
20260831062404 70 242 0.0 0.0 0.00 0.00 0.00 94 1006.6
20260831061707 70 242 0.0 0.0 0.00 0.00 0.00 94 1006.6
20260831061427 70 242 0.0 0.0 0.00 0.00 0.00 93 1006.6
20260831061001 70 242 0.0 0.0 0.00 0.00 0.00 93 1006.5
20260831060427 71 242 0.0 0.0 0.00 0.00 0.00 93 1006.5
20260831060301 71 242 0.0 0.0 0.00 0.00 0.00 93 1006.5
20260831055558 71 242 0.0 0.0 0.00 0.00 0.00 92 1006.3
20260831055427 71 242 0.0 0.0 0.00 0.00 0.00 92 1006.3
20260831054858 71 242 0.0 0.0 0.00 0.00 0.00 91 1006.3
20260831054427 71 242 0.0 1.0 0.00 0.00 0.00 91 1006.2
20260831054158 71 242 0.0 1.0 0.00 0.00 0.00 91 1006.2
20260831053500 72 241 1.0 3.0 0.00 0.00 0.00 90 1006.4
20260831053429 72 241 1.0 3.0 0.00 0.00 0.00 90 1006.4
20260831052802 72 257 0.0 1.0 0.00 0.00 0.00 90 1006.3
20260831052429 72 258 0.0 0.0 0.00 0.00 0.00 89 1006.3
20260831052100 72 258 0.0 0.0 0.00 0.00 0.00 89 1006.3
20260831051427 73 258 0.0 1.0 0.00 0.00 0.00 88 1006.1
20260831051401 73 258 0.0 1.0 0.00 0.00 0.00 88 1006.1
20260831050700 73 257 0.0 1.0 0.00 0.00 0.00 88 1006.1
20260831050427 73 257 0.0 2.0 0.00 0.00 0.00 88 1006.2
20260831050000 73 257 0.0 2.0 0.00 0.00 0.00 87 1006.3
20260831045427 73 258 0.0 1.0 0.00 0.00 0.00 87 1006.3
20260831045259 73 258 0.0 1.0 0.00 0.00 0.00 87 1006.3
20260831044600 74 257 0.0 1.0 0.00 0.00 0.00 87 1006.2
20260831044427 74 258 0.0 0.0 0.00 0.00 0.00 86 1006.1
20260831043859 74 258 0.0 0.0 0.00 0.00 0.00 86 1006.3
20260831043427 74 258 0.0 1.0 0.00 0.00 0.00 85 1006.3
20260831043201 74 258 0.0 1.0 0.00 0.00 0.00 85 1006.3
20260831042503 75 258 0.0 1.0 0.00 0.00 0.00 84 1006.3
20260831042429 75 258 0.0 1.0 0.00 0.00 0.00 84 1006.3
20260831041801 75 258 0.0 1.0 0.00 0.00 0.00 83 1006.4
20260831041429 75 257 0.0 1.0 0.00 0.00 0.00 83 1006.3
20260831041107 75 257 0.0 1.0 0.00 0.00 0.00 83 1006.3
20260831040429 76 258 0.0 2.0 0.00 0.00 0.00 82 1006.4
20260831040400 76 258 0.0 2.0 0.00 0.00 0.00 82 1006.4
20260831035704 76 257 0.0 2.0 0.00 0.00 0.00 81 1006.3
20260831035427 76 258 0.0 1.0 0.00 0.00 0.00 80 1006.3
20260831034959 76 258 0.0 2.0 0.00 0.00 0.00 80 1006.3
20260831034427 76 257 0.0 3.0 0.00 0.00 0.00 79 1006.2
20260831034259 76 257 0.0 3.0 0.00 0.00 0.00 79 1006.2
20260831033558 76 257 0.0 3.0 0.00 0.00 0.00 79 1006.3
20260831033427 77 226 0.0 5.0 0.00 0.00 0.00 79 1006.3
20260831032859 77 226 1.0 5.0 0.00 0.00 0.00 79 1006.1
20260831032427 77 228 1.0 4.0 0.00 0.00 0.00 79 1006.2
20260831032202 77 228 1.0 4.0 0.00 0.00 0.00 79 1006.2
20260831031501 77 222 0.0 2.0 0.00 0.00 0.00 78 1006.1
20260831031429 77 222 0.0 2.0 0.00 0.00 0.00 78 1006.1
20260831030800 77 222 0.0 1.0 0.00 0.00 0.00 78 1006.1
20260831030429 78 222 0.0 1.0 0.00 0.00 0.00 77 1006.0
20260831030100 78 222 0.0 1.0 0.00 0.00 0.00 77 1006.0
20260831025427 78 222 0.0 0.0 0.00 0.00 0.00 76 1005.8
20260831025405 78 222 0.0 0.0 0.00 0.00 0.00 76 1005.8
20260831024701 78 222 0.0 1.0 0.00 0.00 0.00 76 1006.0
20260831024428 78 221 0.0 1.0 0.00 0.00 0.00 76 1005.8
20260831024001 79 222 0.0 2.0 0.00 0.00 0.00 76 1005.8
20260831023428 79 221 0.0 3.0 0.00 0.00 0.00 76 1005.7
20260831023305 79 221 0.0 3.0 0.00 0.00 0.00 76 1005.7
20260831022559 79 221 1.0 3.0 0.00 0.00 0.00 75 1005.6
20260831022428 79 221 0.0 3.0 0.00 0.00 0.00 76 1005.5
20260831021901 79 221 1.0 4.0 0.00 0.00 0.00 76 1005.4
20260831021428 79 221 1.0 4.0 0.00 0.00 0.00 76 1005.2
20260831021159 79 221 1.0 4.0 0.00 0.00 0.00 76 1005.2
20260831020504 79 220 1.0 2.0 0.00 0.00 0.00 76 1005.2
20260831020428 79 220 1.0 2.0 0.00 0.00 0.00 76 1005.2
20260831015801 80 220 0.0 1.0 0.00 0.00 0.00 76 1005.1
20260831015427 80 221 0.0 2.0 0.00 0.00 0.00 76 1005.0
20260831015100 80 221 0.0 2.0 0.00 0.00 0.00 76 1005.0
20260831014427 81 220 0.0 2.0 0.00 0.00 0.00 76 1005.0
20260831014359 81 220 0.0 2.0 0.00 0.00 0.00 76 1005.0
20260831013659 82 221 0.0 1.0 0.00 0.00 0.00 76 1004.9
20260831013427 82 220 0.0 2.0 0.00 0.00 0.00 77 1004.9
20260831012958 82 220 0.0 2.0 0.00 0.00 0.00 79 1004.9
20260831012428 83 220 0.0 1.0 0.00 0.00 0.00 81 1005.0
20260831012259 83 220 0.0 1.0 0.00 0.00 0.00 81 1005.0
20260831011559 83 220 0.0 3.0 0.00 0.00 0.00 84 1004.9
20260831011428 84 220 0.0 3.0 0.00 0.00 0.00 84 1004.8
20260831010859 84 220 0.0 1.0 0.00 0.00 0.00 85 1004.9
20260831010428 84 221 0.0 2.0 0.00 0.00 0.00 84 1004.9
20260831010201 84 221 0.0 2.0 0.00 0.00 0.00 84 1004.9
20260831005459 85 221 0.0 0.0 0.00 0.00 0.00 83 1004.9
20260831005428 85 221 0.0 0.0 0.00 0.00 0.00 83 1004.9
20260831004427 85 221 0.0 0.0 0.00 0.00 0.00 80 1005.0
20260831004102 85 221 0.0 0.0 0.00 0.00 0.00 80 1005.0
20260831003427 86 220 0.0 0.0 0.00 0.00 0.00 77 1005.1
20260831003359 86 220 0.0 0.0 0.00 0.00 0.00 77 1005.1
20260831002701 86 221 0.0 0.0 0.00 0.00 0.00 77 1005.2
20260831002427 87 221 0.0 0.0 0.00 0.00 0.00 76 1005.1
20260831002001 87 221 0.0 1.0 0.00 0.00 0.00 75 1005.1
20260831001427 87 220 0.0 1.0 0.00 0.00 0.00 75 1005.3
20260831001258 87 220 0.0 1.0 0.00 0.00 0.00 75 1005.3